QPF
0.00 0.00 0.00 0.00 0.00 0.00 0.00 0.01 0.01 0.01 0.01 0.01 0.01 0.01 0.00 0.01 0.01 0.01 0.01 0.02 0.02 0.01 0.02 0.03 0.02 0.04 0.05 0.05 0.02 0.01 0.01 0.00 0.01 0.01 0.00 0.01 0.01 0.01 0.01 0.01 0.02 0.03 0.04 0.03
0.00 0.00 0.00 0.00 0.00 0.00 0.00 0.01 0.00 0.00 0.01 0.01 0.01 0.01 0.01 0.00 0.01 0.01 0.01 0.02 0.03 0.03 0.03 0.03 0.05 0.07 0.06 0.05 0.02 0.01 0.01 0.01 0.01 0.00 0.00 0.01 0.02 0.01 0.01 0.01 0.02 0.03 0.04 0.04
0.00 0.00 0.00 0.00 0.00 0.00 0.01 0.01 0.01 0.01 0.01 0.01 0.01 0.01 0.01 0.01 0.01 0.01 0.02 0.03 0.04 0.05 0.06 0.10 0.13 0.09 0.05 0.03 0.02 0.02 0.01 0.01 0.00 0.00 0.01 0.01 0.02 0.02 0.02 0.02 0.03 0.03 0.03 0.04
0.00 0.00 0.01 0.01 0.01 0.00 0.01 0.01 0.02 0.03 0.01 0.01 0.01 0.01 0.01 0.01 0.01 0.01 0.02 0.04 0.04 0.06 0.07 0.07 0.07 0.05 0.04 0.03 0.02 0.02 0.01 0.01 0.01 0.00 0.01 0.01 0.02 0.03 0.02 0.02 0.03 0.03 0.02 0.02
0.00 0.00 0.01 0.01 0.01 0.01 0.01 0.01 0.02 0.03 0.02 0.01 0.01 0.01 0.00 0.00 0.00 0.00 0.02 0.03 0.04 0.05 0.04 0.05 0.07 0.06 0.04 0.04 0.02 0.01 0.01 0.01 0.01 0.01 0.01 0.01 0.02 0.03 0.03 0.03 0.03 0.03 0.03 0.03
0.00 0.00 0.01 0.01 0.01 0.01 0.01 0.01 0.01 0.01 0.02 0.01 0.01 0.01 0.00 0.00 0.00 0.00 0.01 0.01 0.02 0.03 0.03 0.04 0.04 0.03 0.03 0.03 0.01 0.01 0.01 0.01 0.01 0.01 0.00 0.00 0.01 0.02 0.03 0.03 0.03 0.03 0.04 0.04
0.00 0.00 0.01 0.01 0.01 0.01 0.01 0.01 0.01 0.00 0.01 0.02 0.01 0.01 0.01 0.01 0.01 0.00 0.01 0.01 0.01 0.02 0.01 0.01 0.01 0.01 0.01 0.01 0.01 0.01 0.01 0.01 0.00 0.00 0.00 0.00 0.01 0.01 0.04 0.03 0.03 0.02 0.02 0.02
0.00 0.01 0.01 0.00 0.00 0.00 0.00 0.00 0.00 0.00 0.01 0.01 0.01 0.01 0.02 0.02 0.01 0.01 0.00 0.00 0.00 0.01 0.01 0.00 0.00 0.01 0.01 0.01 0.02 0.02 0.01 0.01 0.00 0.00 0.00 0.01 0.01 0.03 0.05 0.04 0.02 0.02 0.01 0.01
0.00 0.00 0.01 0.01 0.01 0.00 0.00 0.00 0.00 0.00 0.01 0.00 0.00 0.01 0.01 0.01 0.01 0.01 0.01 0.00 0.00 0.01 0.01 0.00 0.00 0.00 0.01 0.01 0.01 0.02 0.01 0.00 0.00 0.01 0.01 0.02 0.03 0.05 0.04 0.03 0.01 0.01 0.01 0.01
0.00 0.01 0.00 0.00 0.00 0.00 0.00 0.01 0.01 0.01 0.01 0.01 0.00 0.01 0.01 0.01 0.01 0.01 0.01 0.01 0.01 0.01 0.01 0.01 0.00 0.00 0.01 0.00 0.01 0.01 0.01 0.01 0.01 0.02 0.02 0.02 0.03 0.03 0.02 0.01 0.00 0.01 0.00 0.00
0.00 0.00 0.00 0.00 0.00 0.00 0.00 0.01 0.01 0.01 0.00 0.00 0.00 0.01 0.01 0.01 0.01 0.01 0.01 0.01 0.01 0.01 0.01 0.01 0.01 0.00 0.01 0.01 0.01 0.01 0.01 0.01 0.02 0.01 0.01 0.01 0.01 0.01 0.00 0.00 0.00 0.00 0.00 0.00
0.00 0.00 0.00 0.00 0.00 0.00 0.00 0.00 0.01 0.00 0.00 0.00 0.01 0.01 0.01 0.01 0.01 0.01 0.01 0.01 0.01 0.01 0.01 0.01 0.01 0.00 0.01 0.01 0.01 0.02 0.02 0.03 0.02 0.01 0.00 0.01 0.01 0.00 0.01 0.00 0.00 0.00 0.00 0.00
0.00 0.00 0.00 0.00 0.00 0.00 0.00 0.00 0.00 0.00 0.00 0.00 0.00 0.00 0.01 0.01 0.01 0.01 0.01 0.01 0.01 0.01 0.01 0.01 0.01 0.00 0.00 0.00 0.01 0.01 0.03 0.02 0.01 0.01 0.01 0.00 0.00 0.01 0.01 0.01 0.01 0.00 0.00 0.00
0.01 0.00 0.00 0.00 0.00 0.00 0.00 0.00 0.00 0.01 0.01 0.01 0.01 0.01 0.01 0.01 0.00 0.00 0.00 0.00 0.00 0.00 0.00 0.01 0.01 0.01 0.01 0.01 0.01 0.01 0.02 0.02 0.01 0.00 0.00 0.00 0.00 0.01 0.01 0.01 0.01 0.00 0.01 0.01
0.00 0.00 0.00 0.00 0.00 0.00 0.00 0.01 0.01 0.01 0.00 0.00 0.00 0.00 0.00 0.00 0.00 0.00 0.00 0.00 0.00 0.00 0.01 0.01 0.01 0.01 0.01 0.01 0.01 0.01 0.01 0.01 0.02 0.00 0.00 0.00 0.01 0.01 0.01 0.01 0.01 0.01 0.01 0.01
0.00 0.00 0.00 0.00 0.00 0.00 0.00 0.00 0.01 0.01 0.01 0.00 0.00 0.00 0.00 0.00 0.00 0.00 0.00 0.01 0.01 0.01 0.00 0.01 0.01 0.01 0.01 0.02 0.02 0.02 0.01 0.01 0.01 0.01 0.00 0.01 0.01 0.01 0.01 0.01 0.01 0.01 0.01 0.01
0.00 0.00 0.00 0.01 0.01 0.01 0.00 0.00 0.00 0.00 0.00 0.00 0.00 0.00 0.00 0.00 0.00 0.01 0.02 0.01 0.01 0.01 0.01 0.02 0.03 0.02 0.02 0.02 0.02 0.02 0.03 0.02 0.01 0.01 0.01 0.01 0.01 0.01 0.01 0.01 0.01 0.01 0.01 0.01
0.00 0.00 0.01 0.01 0.01 0.01 0.01 0.00 0.00 0.00 0.00 0.00 0.00 0.00 0.00 0.00 0.00 0.01 0.02 0.01 0.01 0.01 0.01 0.02 0.02 0.02 0.02 0.01 0.02 0.02 0.03 0.02 0.01 0.01 0.01 0.01 0.02 0.02 0.02 0.01 0.02 0.03 0.03 0.02
0.01 0.01 0.01 0.01 0.01 0.01 0.01 0.01 0.00 0.00 0.00 0.00 0.00 0.00 0.00 0.00 0.00 0.00 0.01 0.01 0.01 0.01 0.01 0.02 0.01 0.01 0.01 0.01 0.02 0.02 0.03 0.02 0.01 0.01 0.01 0.02 0.02 0.02 0.02 0.02 0.03 0.03 0.03 0.02
0.01 0.01 0.02 0.02 0.01 0.01 0.01 0.01 0.00 0.00 0.00 0.01 0.00 0.01 0.01 0.01 0.01 0.01 0.01 0.01 0.01 0.01 0.01 0.02 0.01 0.01 0.01 0.02 0.02 0.02 0.02 0.02 0.02 0.03 0.03 0.03 0.03 0.03 0.02 0.02 0.01 0.02 0.02 0.02
0.02 0.03 0.03 0.03 0.02 0.01 0.01 0.01 0.01 0.01 0.01 0.01 0.01 0.01 0.01 0.01 0.01 0.02 0.01 0.01 0.01 0.02 0.02 0.02 0.02 0.01 0.01 0.02 0.02 0.02 0.03 0.03 0.04 0.03 0.03 0.02 0.02 0.01 0.01 0.01 0.01 0.01 0.02 0.01
0.02 0.03 0.03 0.03 0.02 0.01 0.01 0.01 0.01 0.01 0.01 0.01 0.01 0.01 0.01 0.01 0.01 0.02 0.02 0.02 0.03 0.03 0.03 0.02 0.02 0.02 0.02 0.02 0.01 0.02 0.03 0.03 0.02 0.02 0.02 0.01 0.01 0.01 0.01 0.01 0.02 0.01 0.01 0.01
0.02 0.03 0.04 0.04 0.03 0.02 0.01 0.01 0.01 0.01 0.01 0.01 0.01 0.00 0.01 0.01 0.02 0.03 0.03 0.03 0.04 0.04 0.02 0.02 0.01 0.01 0.02 0.01 0.01 0.01 0.01 0.01 0.01 0.01 0.01 0.01 0.01 0.01 0.01 0.02 0.02 0.02 0.01 0.01
0.02 0.02 0.03 0.03 0.04 0.03 0.01 0.01 0.00 0.00 0.00 0.00 0.01 0.00 0.01 0.01 0.02 0.02 0.03 0.03 0.03 0.02 0.02 0.02 0.02 0.01 0.01 0.01 0.01 0.01 0.01 0.01 0.01 0.01 0.01 0.01 0.00 0.00 0.01 0.01 0.02 0.02 0.01 0.01
0.01 0.01 0.02 0.03 0.04 0.03 0.01 0.00 0.00 0.00 0.00 0.00 0.00 0.00 0.01 0.01 0.01 0.01 0.01 0.01 0.01 0.01 0.00 0.01 0.01 0.01 0.01 0.01 0.01 0.01 0.01 0.01 0.01 0.01 0.01 0.00 0.00 0.00 0.00 0.01 0.02 0.01 0.01 0.01
0.01 0.01 0.01 0.02 0.02 0.02 0.01 0.01 0.01 0.01 0.01 0.01 0.00 0.01 0.01 0.01 0.01 0.01 0.01 0.00 0.00 0.00 0.00 0.00 0.00 0.01 0.01 0.01 0.01 0.01 0.01 0.01 0.01 0.01 0.00 0.00 0.00 0.00 0.01 0.01 0.02 0.01 0.01 0.01
0.01 0.01 0.01 0.01 0.01 0.01 0.01 0.00 0.01 0.01 0.01 0.01 0.01 0.01 0.01 0.00 0.00 0.01 0.00 0.00 0.00 0.00 0.00 0.00 0.00 0.00 0.01 0.01 0.01 0.01 0.01 0.01 0.01 0.01 0.01 0.00 0.00 0.00 0.00 0.01 0.01 0.01 0.01 0.01
MSLP
1018.78 1018.93 1019.07 1019.21 1019.35 1019.49 1019.60 1019.66 1019.66 1019.59 1019.47 1019.30 1019.11 1018.92 1018.76 1018.63 1018.54 1018.47 1018.40 1018.31 1018.18 1017.98 1017.71 1017.39 1017.02 1016.64 1016.26 1015.92 1015.63 1015.40 1015.22 1015.08 1014.98 1014.88 1014.78 1014.66 1014.52 1014.37 1014.22 1014.06 1013.93 1013.81 1013.72 1013.65
1019.17 1019.26 1019.30 1019.32 1019.33 1019.32 1019.31 1019.28 1019.23 1019.16 1019.07 1018.97 1018.87 1018.78 1018.70 1018.64 1018.59 1018.53 1018.47 1018.36 1018.20 1017.99 1017.71 1017.38 1017.01 1016.62 1016.24 1015.88 1015.56 1015.28 1015.05 1014.86 1014.70 1014.56 1014.43 1014.31 1014.19 1014.06 1013.95 1013.84 1013.75 1013.68 1013.63 1013.59
1019.44 1019.45 1019.39 1019.29 1019.17 1019.06 1018.95 1018.86 1018.80 1018.75 1018.71 1018.69 1018.68 1018.67 1018.66 1018.65 1018.62 1018.57 1018.48 1018.34 1018.15 1017.91 1017.61 1017.27 1016.90 1016.51 1016.12 1015.75 1015.40 1015.10 1014.83 1014.59 1014.40 1014.23 1014.08 1013.96 1013.85 1013.75 1013.67 1013.61 1013.56 1013.53 1013.51 1013.51
1019.56 1019.46 1019.29 1019.08 1018.86 1018.66 1018.50 1018.39 1018.33 1018.32 1018.35 1018.41 1018.48 1018.55 1018.60 1018.62 1018.60 1018.54 1018.43 1018.26 1018.03 1017.76 1017.44 1017.08 1016.71 1016.31 1015.92 1015.55 1015.19 1014.86 1014.56 1014.30 1014.07 1013.88 1013.72 1013.60 1013.50 1013.42 1013.37 1013.34 1013.33 1013.33 1013.34 1013.36
1019.51 1019.28 1018.99 1018.68 1018.38 1018.13 1017.94 1017.83 1017.81 1017.86 1017.96 1018.10 1018.25 1018.39 1018.49 1018.54 1018.53 1018.45 1018.31 1018.11 1017.85 1017.55 1017.21 1016.84 1016.46 1016.07 1015.68 1015.30 1014.93 1014.59 1014.27 1013.99 1013.74 1013.54 1013.37 1013.24 1013.15 1013.08 1013.05 1013.04 1013.04 1013.06 1013.09 1013.12
1019.27 1018.91 1018.51 1018.11 1017.75 1017.47 1017.29 1017.21 1017.23 1017.35 1017.53 1017.75 1017.97 1018.17 1018.31 1018.39 1018.39 1018.31 1018.15 1017.92 1017.64 1017.32 1016.97 1016.60 1016.21 1015.82 1015.43 1015.05 1014.68 1014.33 1014.01 1013.71 1013.45 1013.22 1013.04 1012.90 1012.80 1012.73 1012.70 1012.69 1012.69 1012.72 1012.75 1012.79
1018.84 1018.36 1017.87 1017.41 1017.02 1016.73 1016.57 1016.54 1016.63 1016.81 1017.07 1017.36 1017.65 1017.90 1018.08 1018.19 1018.20 1018.12 1017.96 1017.73 1017.44 1017.11 1016.75 1016.38 1016.00 1015.61 1015.23 1014.85 1014.48 1014.12 1013.79 1013.48 1013.21 1012.96 1012.76 1012.60 1012.48 1012.39 1012.33 1012.30 1012.29 1012.30 1012.33 1012.37
1018.23 1017.66 1017.10 1016.61 1016.22 1015.96 1015.84 1015.87 1016.02 1016.28 1016.60 1016.96 1017.30 1017.60 1017.82 1017.95 1017.98 1017.92 1017.77 1017.54 1017.26 1016.94 1016.59 1016.22 1015.85 1015.47 1015.09 1014.72 1014.35 1013.99 1013.65 1013.33 1013.04 1012.78 1012.55 1012.35 1012.19 1012.06 1011.96 1011.89 1011.85 1011.83 1011.85 1011.89
1017.44 1016.82 1016.24 1015.76 1015.40 1015.19 1015.13 1015.22 1015.44 1015.76 1016.15 1016.55 1016.94 1017.27 1017.52 1017.68 1017.75 1017.71 1017.58 1017.38 1017.12 1016.82 1016.49 1016.14 1015.77 1015.40 1015.04 1014.67 1014.30 1013.94 1013.60 1013.26 1012.95 1012.66 1012.39 1012.15 1011.93 1011.74 1011.59 1011.46 1011.36 1011.31 1011.30 1011.33
1016.51 1015.87 1015.32 1014.88 1014.58 1014.44 1014.46 1014.62 1014.90 1015.27 1015.70 1016.14 1016.56 1016.92 1017.20 1017.39 1017.49 1017.49 1017.40 1017.23 1017.01 1016.74 1016.43 1016.10 1015.75 1015.40 1015.04 1014.68 1014.31 1013.96 1013.60 1013.26 1012.92 1012.60 1012.28 1011.99 1011.70 1011.44 1011.21 1011.01 1010.85 1010.74 1010.70 1010.72
1015.47 1014.87 1014.37 1014.00 1013.78 1013.73 1013.82 1014.05 1014.38 1014.79 1015.25 1015.71 1016.14 1016.52 1016.83 1017.05 1017.18 1017.22 1017.18 1017.06 1016.88 1016.65 1016.37 1016.07 1015.74 1015.41 1015.06 1014.71 1014.35 1014.00 1013.64 1013.29 1012.93 1012.57 1012.21 1011.85 1011.50 1011.16 1010.84 1010.55 1010.32 1010.15 1010.06 1010.05
1014.37 1013.83 1013.42 1013.14 1013.02 1013.05 1013.21 1013.49 1013.86 1014.30 1014.76 1015.22 1015.66 1016.05 1016.37 1016.62 1016.79 1016.87 1016.88 1016.81 1016.68 1016.49 1016.25 1015.98 1015.68 1015.36 1015.03 1014.70 1014.35 1014.01 1013.66 1013.31 1012.94 1012.56 1012.16 1011.74 1011.32 1010.89 1010.49 1010.11 1009.79 1009.55 1009.40 1009.34
1013.28 1012.82 1012.50 1012.32 1012.29 1012.40 1012.62 1012.94 1013.32 1013.76 1014.21 1014.66 1015.09 1015.47 1015.80 1016.07 1016.27 1016.40 1016.46 1016.44 1016.36 1016.21 1016.02 1015.78 1015.51 1015.21 1014.90 1014.59 1014.27 1013.95 1013.62 1013.28 1012.91 1012.52 1012.10 1011.64 1011.16 1010.67 1010.18 1009.72 1009.31 1008.98 1008.75 1008.64
1012.25 1011.88 1011.66 1011.57 1011.62 1011.79 1012.04 1012.37 1012.76 1013.17 1013.59 1014.01 1014.41 1014.78 1015.12 1015.40 1015.63 1015.79 1015.89 1015.92 1015.88 1015.78 1015.62 1015.41 1015.17 1014.91 1014.63 1014.35 1014.06 1013.78 1013.48 1013.17 1012.83 1012.46 1012.03 1011.56 1011.04 1010.49 1009.93 1009.39 1008.90 1008.49 1008.18 1007.98
1011.33 1011.06 1010.93 1010.92 1011.03 1011.23 1011.50 1011.82 1012.18 1012.55 1012.93 1013.30 1013.67 1014.02 1014.34 1014.63 1014.87 1015.06 1015.20 1015.26 1015.26 1015.19 1015.06 1014.88 1014.67 1014.44 1014.19 1013.95 1013.71 1013.47 1013.23 1012.97 1012.68 1012.34 1011.94 1011.47 1010.95 1010.37 1009.77 1009.17 1008.60 1008.10 1007.70 1007.42
1010.57 1010.39 1010.33 1010.39 1010.53 1010.75 1011.01 1011.31 1011.62 1011.94 1012.26 1012.58 1012.90 1013.22 1013.52 1013.80 1014.05 1014.25 1014.41 1014.50 1014.52 1014.47 1014.36 1014.21 1014.02 1013.81 1013.60 1013.40 1013.21 1013.04 1012.86 1012.66 1012.44 1012.16 1011.81 1011.38 1010.87 1010.30 1009.68 1009.04 1008.41 1007.84 1007.34 1006.96
1009.98 1009.88 1009.90 1010.00 1010.17 1010.38 1010.62 1010.87 1011.12 1011.38 1011.64 1011.90 1012.17 1012.45 1012.72 1012.98 1013.22 1013.43 1013.59 1013.68 1013.71 1013.67 1013.58 1013.43 1013.26 1013.08 1012.90 1012.74 1012.60 1012.48 1012.37 1012.25 1012.10 1011.89 1011.61 1011.24 1010.78 1010.23 1009.62 1008.97 1008.30 1007.67 1007.10 1006.63
1009.58 1009.56 1009.62 1009.76 1009.93 1010.13 1010.33 1010.53 1010.72 1010.92 1011.11 1011.31 1011.53 1011.76 1012.00 1012.23 1012.45 1012.64 1012.78 1012.87 1012.89 1012.85 1012.75 1012.62 1012.45 1012.28 1012.13 1012.00 1011.91 1011.84 1011.79 1011.73 1011.65 1011.53 1011.32 1011.02 1010.62 1010.12 1009.54 1008.90 1008.23 1007.56 1006.93 1006.38
1009.37 1009.40 1009.50 1009.65 1009.82 1009.99 1010.15 1010.30 1010.43 1010.56 1010.69 1010.84 1011.00 1011.18 1011.37 1011.57 1011.76 1011.92 1012.04 1012.10 1012.10 1012.05 1011.94 1011.80 1011.63 1011.47 1011.33 1011.22 1011.15 1011.12 1011.11 1011.11 1011.09 1011.02 1010.89 1010.66 1010.33 1009.89 1009.36 1008.76 1008.10 1007.43 1006.78 1006.17
1009.32 1009.39 1009.51 1009.65 1009.80 1009.93 1010.05 1010.14 1010.22 1010.30 1010.37 1010.46 1010.57 1010.69 1010.84 1010.99 1011.13 1011.25 1011.34 1011.37 1011.35 1011.27 1011.15 1011.00 1010.83 1010.67 1010.53 1010.42 1010.36 1010.35 1010.36 1010.39 1010.40 1010.38 1010.30 1010.13 1009.87 1009.50 1009.03 1008.49 1007.88 1007.23 1006.58 1005.95
1009.39 1009.48 1009.59 1009.72 1009.83 1009.92 1009.99 1010.03 1010.06 1010.07 1010.09 1010.13 1010.18 1010.25 1010.34 1010.44 1010.53 1010.61 1010.65 1010.65 1010.60 1010.50 1010.36 1010.20 1010.03 1009.86 1009.72 1009.61 1009.55 1009.53 1009.54 1009.57 1009.60 1009.60 1009.55 1009.43 1009.22 1008.92 1008.53 1008.05 1007.50 1006.91 1006.29 1005.67
1009.54 1009.62 1009.71 1009.79 1009.86 1009.90 1009.92 1009.91 1009.88 1009.84 1009.81 1009.78 1009.78 1009.79 1009.82 1009.86 1009.89 1009.91 1009.91 1009.87 1009.80 1009.68 1009.54 1009.37 1009.20 1009.04 1008.89 1008.78 1008.71 1008.68 1008.67 1008.69 1008.71 1008.71 1008.67 1008.58 1008.42 1008.18 1007.86 1007.46 1007.00 1006.48 1005.92 1005.35
1009.72 1009.75 1009.80 1009.83 1009.84 1009.83 1009.79 1009.73 1009.65 1009.56 1009.47 1009.38 1009.31 1009.26 1009.22 1009.19 1009.16 1009.12 1009.07 1009.00 1008.90 1008.78 1008.63 1008.48 1008.32 1008.16 1008.02 1007.91 1007.83 1007.78 1007.75 1007.74 1007.74 1007.73 1007.70 1007.63 1007.51 1007.33 1007.08 1006.77 1006.40 1005.97 1005.49 1004.99
1009.83 1009.81 1009.80 1009.77 1009.72 1009.66 1009.57 1009.45 1009.32 1009.18 1009.04 1008.89 1008.76 1008.63 1008.52 1008.42 1008.32 1008.22 1008.12 1008.01 1007.89 1007.76 1007.63 1007.48 1007.34 1007.21 1007.09 1006.99 1006.90 1006.84 1006.80 1006.77 1006.75 1006.73 1006.69 1006.64 1006.56 1006.43 1006.26 1006.04 1005.77 1005.43 1005.05 1004.63
1009.80 1009.72 1009.65 1009.57 1009.47 1009.36 1009.22 1009.07 1008.90 1008.72 1008.52 1008.32 1008.12 1007.92 1007.73 1007.55 1007.38 1007.22 1007.07 1006.92 1006.78 1006.65 1006.52 1006.40 1006.28 1006.18 1006.08 1006.00 1005.92 1005.86 1005.81 1005.78 1005.75 1005.73 1005.70 1005.67 1005.63 1005.57 1005.47 1005.34 1005.16 1004.93 1004.64 1004.30
1009.54 1009.41 1009.30 1009.17 1009.05 1008.91 1008.75 1008.57 1008.38 1008.16 1007.93 1007.68 1007.42 1007.16 1006.90 1006.65 1006.41 1006.18 1005.98 1005.79 1005.63 1005.49 1005.37 1005.26 1005.17 1005.09 1005.02 1004.96 1004.90 1004.86 1004.82 1004.79 1004.76 1004.76 1004.75 1004.76 1004.77 1004.77 1004.75 1004.70 1004.61 1004.47 1004.27 1004.00
1008.99 1008.84 1008.70 1008.56 1008.43 1008.28 1008.13 1007.96 1007.76 1007.54 1007.29 1007.02 1006.72 1006.41 1006.10 1005.79 1005.49 1005.20 1004.95 1004.72 1004.53 1004.37 1004.24 1004.13 1004.05 1003.99 1003.94 1003.89 1003.86 1003.83 1003.81 1003.80 1003.80 1003.81 1003.85 1003.90 1003.97 1004.03 1004.09 1004.12 1004.12 1004.06 1003.93 1003.72
Thickness
5687 5690 5689 5684 5683 5680 5672 5666 5659 5662 5663 5670 5671 5671 5671 5669 5667 5664 5662 5660 5658 5656 5655 5654 5654 5654 5654 5653 5651 5649 5647 5645 5643 5642 5640 5638 5636 5634 5633 5631 5629 5627 5626 5624
5682 5688 5685 5680 5681 5679 5675 5672 5667 5666 5665 5674 5673 5671 5668 5666 5664 5661 5658 5658 5656 5656 5654 5654 5653 5653 5652 5650 5649 5647 5645 5643 5641 5639 5638 5636 5634 5632 5630 5629 5627 5625 5623 5621
5667 5677 5678 5668 5676 5676 5674 5674 5669 5662 5667 5670 5668 5667 5665 5664 5662 5659 5657 5655 5654 5653 5652 5652 5652 5651 5650 5649 5647 5644 5642 5641 5639 5637 5636 5634 5633 5631 5628 5626 5625 5623 5621 5619
5659 5666 5657 5669 5683 5681 5674 5672 5671 5669 5668 5668 5667 5666 5665 5663 5660 5658 5656 5655 5653 5652 5651 5651 5650 5649 5648 5647 5645 5642 5640 5638 5637 5636 5634 5632 5631 5629 5627 5625 5623 5621 5619 5616
5649 5651 5656 5671 5679 5676 5669 5666 5670 5667 5666 5665 5665 5662 5660 5662 5660 5658 5656 5654 5653 5652 5650 5649 5648 5647 5646 5644 5642 5640 5638 5636 5636 5634 5632 5631 5629 5627 5625 5623 5621 5619 5617 5614
5648 5649 5647 5665 5680 5682 5672 5659 5669 5666 5662 5660 5659 5650 5654 5662 5659 5657 5654 5653 5652 5651 5649 5647 5646 5645 5642 5641 5639 5638 5637 5636 5635 5633 5631 5629 5627 5625 5623 5621 5619 5617 5614 5612
5645 5644 5652 5671 5677 5677 5655 5655 5668 5665 5662 5658 5655 5654 5658 5659 5657 5655 5652 5651 5650 5648 5645 5644 5643 5641 5639 5638 5637 5637 5636 5634 5633 5631 5630 5628 5625 5623 5621 5619 5616 5614 5612 5610
5640 5639 5648 5672 5670 5662 5660 5667 5666 5663 5661 5659 5657 5657 5656 5655 5653 5651 5649 5648 5646 5643 5642 5641 5640 5637 5636 5635 5636 5635 5633 5632 5631 5629 5628 5626 5623 5621 5618 5616 5614 5611 5609 5607
5648 5651 5663 5667 5667 5668 5665 5663 5663 5661 5660 5658 5654 5653 5652 5650 5648 5646 5644 5643 5642 5639 5638 5637 5636 5634 5633 5634 5634 5632 5631 5629 5628 5626 5625 5623 5620 5618 5616 5613 5611 5609 5607 5605
5648 5654 5661 5663 5664 5664 5663 5662 5662 5660 5658 5655 5651 5650 5647 5644 5643 5640 5639 5638 5637 5635 5633 5632 5632 5632 5631 5632 5631 5629 5628 5626 5625 5623 5622 5620 5618 5617 5614 5612 5610 5608 5606 5603
5642 5650 5654 5659 5659 5659 5659 5658 5657 5656 5654 5651 5648 5645 5644 5641 5639 5637 5635 5633 5632 5630 5630 5629 5629 5628 5629 5628 5627 5625 5624 5623 5622 5621 5619 5617 5616 5615 5614 5612 5609 5607 5606 5603
5638 5646 5644 5648 5654 5655 5652 5651 5650 5649 5647 5646 5644 5641 5640 5637 5635 5633 5632 5630 5629 5627 5627 5627 5626 5625 5626 5625 5624 5622 5621 5620 5619 5617 5616 5615 5614 5613 5613 5611 5610 5608 5605 5602
5644 5646 5644 5647 5648 5648 5646 5645 5645 5643 5642 5639 5638 5637 5635 5632 5631 5629 5627 5626 5625 5625 5624 5624 5623 5622 5623 5622 5621 5619 5618 5617 5616 5615 5614 5612 5611 5610 5610 5610 5609 5607 5604 5601
5640 5638 5637 5639 5639 5640 5639 5639 5638 5637 5636 5634 5633 5631 5629 5628 5627 5625 5624 5623 5623 5621 5621 5620 5619 5619 5620 5619 5617 5616 5616 5615 5614 5612 5611 5610 5609 5608 5607 5606 5605 5604 5602 5599
5633 5632 5630 5631 5631 5631 5630 5629 5628 5627 5627 5626 5626 5624 5623 5621 5621 5621 5621 5620 5619 5617 5617 5616 5616 5616 5616 5615 5614 5613 5613 5612 5611 5610 5609 5607 5607 5605 5604 5603 5602 5600 5599 5597
5623 5623 5622 5621 5621 5621 5620 5620 5619 5619 5619 5619 5618 5618 5617 5616 5616 5616 5616 5615 5613 5613 5613 5612 5612 5613 5613 5611 5611 5610 5610 5610 5609 5607 5606 5605 5604 5603 5602 5601 5599 5598 5596 5594
5611 5610 5610 5610 5611 5611 5612 5612 5613 5613 5612 5612 5612 5613 5612 5611 5611 5611 5611 5611 5610 5610 5610 5609 5609 5610 5609 5608 5607 5607 5606 5606 5605 5604 5603 5602 5602 5601 5600 5598 5597 5595 5594 5592
5606 5606 5605 5605 5604 5604 5605 5606 5606 5606 5606 5607 5608 5607 5606 5606 5606 5606 5607 5606 5605 5605 5606 5606 5606 5606 5606 5605 5604 5603 5602 5602 5601 5601 5600 5599 5599 5598 5597 5596 5595 5593 5591 5589
5597 5597 5598 5598 5599 5598 5599 5600 5600 5601 5601 5602 5602 5601 5601 5601 5602 5602 5601 5600 5599 5599 5601 5602 5601 5601 5601 5601 5600 5599 5599 5598 5598 5597 5597 5596 5596 5595 5595 5594 5592 5590 5588 5586
5587 5588 5590 5591 5592 5592 5593 5594 5594 5595 5595 5596 5596 5596 5596 5597 5596 5596 5595 5594 5595 5596 5597 5597 5597 5596 5596 5596 5596 5595 5595 5595 5595 5594 5593 5594 5593 5593 5592 5591 5590 5588 5586 5583
5576 5578 5580 5581 5583 5585 5587 5588 5588 5589 5589 5589 5589 5590 5590 5591 5590 5589 5588 5588 5591 5592 5591 5592 5592 5592 5592 5591 5591 5591 5591 5591 5591 5591 5591 5591 5590 5590 5589 5589 5587 5585 5583 5580
5566 5568 5570 5572 5573 5575 5578 5579 5581 5583 5583 5583 5584 5584 5584 5584 5584 5583 5583 5584 5586 5586 5586 5586 5586 5586 5587 5586 5587 5587 5588 5588 5588 5587 5587 5587 5587 5586 5586 5585 5584 5582 5579 5577
5557 5559 5561 5563 5564 5566 5569 5572 5573 5574 5575 5576 5577 5577 5577 5577 5577 5576 5578 5580 5581 5581 5581 5581 5581 5581 5581 5582 5583 5584 5584 5584 5585 5585 5585 5584 5584 5584 5583 5582 5580 5578 5576 5573
5549 5551 5552 5554 5556 5557 5559 5563 5564 5566 5567 5569 5570 5571 5570 5570 5572 5573 5573 5574 5575 5575 5576 5576 5576 5576 5577 5578 5579 5580 5581 5582 5582 5581 5581 5582 5581 5581 5580 5578 5576 5574 5572 5569
5541 5542 5544 5545 5547 5549 5551 5554 5556 5558 5559 5561 5562 5563 5564 5565 5566 5568 5569 5569 5569 5569 5571 5572 5572 5572 5573 5574 5575 5577 5578 5579 5579 5578 5578 5578 5578 5578 5576 5575 5573 5570 5568 5565
5533 5534 5536 5538 5540 5541 5543 5545 5547 5550 5551 5553 5555 5557 5558 5559 5560 5561 5562 5563 5564 5564 5565 5566 5567 5567 5568 5569 5571 5572 5573 5574 5574 5574 5575 5575 5574 5574 5572 5571 5569 5566 5563 5561
5525 5526 5527 5530 5533 5534 5535 5537 5540 5542 5544 5545 5547 5549 5550 5552 5553 5554 5556 5557 5558 5559 5560 5560 5561 5562 5563 5564 5566 5567 5569 5569 5570 5570 5570 5570 5569 5569 5568 5566 5564 5562 5559 5556